Total_Precipitation_Accumulation
0.60 0.42 0.43 0.40 0.34 0.30 0.29 0.35 0.43 0.38 0.35 0.37 0.41 0.42 0.39 0.36 0.35 0.35 0.41 0.45 0.52 0.58 0.64 0.72 0.80 0.87 0.91 0.92 0.78 0.62 0.55 0.53 0.50 0.58 0.65 0.69 0.78 0.88 1.00 0.97 1.03 0.92 1.06
0.45 0.38 0.41 0.38 0.38 0.35 0.35 0.40 0.37 0.33 0.32 0.34 0.35 0.41 0.41 0.38 0.37 0.41 0.44 0.53 0.63 0.71 0.73 0.73 0.77 0.88 0.88 0.79 0.72 0.65 0.53 0.50 0.52 0.67 0.78 0.79 0.98 1.10 1.18 1.09 1.07 1.18 1.07
0.35 0.38 0.40 0.44 0.43 0.40 0.35 0.37 0.32 0.30 0.35 0.39 0.38 0.43 0.48 0.42 0.41 0.41 0.47 0.60 0.76 0.81 0.79 0.80 0.83 0.90 0.90 0.75 0.68 0.67 0.64 0.62 0.68 0.87 1.14 1.13 1.16 1.38 1.39 1.25 1.16 1.07 0.91
0.31 0.38 0.39 0.48 0.49 0.44 0.38 0.38 0.35 0.35 0.38 0.44 0.50 0.52 0.57 0.51 0.48 0.51 0.57 0.64 0.80 0.84 0.84 0.85 0.88 0.93 0.91 0.76 0.69 0.72 0.79 0.86 0.95 1.15 1.43 1.34 1.21 1.52 1.47 1.33 1.22 1.13 1.03
0.37 0.39 0.41 0.44 0.48 0.52 0.50 0.48 0.48 0.45 0.48 0.52 0.60 0.66 0.72 0.67 0.60 0.63 0.67 0.71 0.81 0.84 0.90 0.97 0.99 1.01 0.95 0.88 0.82 0.84 0.87 0.97 1.18 1.41 1.70 1.88 1.87 1.89 1.57 1.39 1.27 1.22 1.20
0.52 0.51 0.44 0.50 0.52 0.66 0.67 0.62 0.61 0.58 0.59 0.65 0.69 0.71 0.77 0.75 0.73 0.78 0.83 0.87 0.95 0.97 0.99 1.06 1.15 1.19 1.11 1.21 1.04 1.01 1.04 1.17 1.27 1.49 1.87 2.21 2.17 2.17 1.79 1.54 1.39 1.39 1.33
0.80 0.77 0.60 0.60 0.61 0.71 0.69 0.68 0.67 0.67 0.67 0.75 0.78 0.74 0.78 0.76 0.75 0.87 1.01 1.05 1.13 1.16 1.08 1.06 1.14 1.20 1.20 1.41 1.41 1.24 1.33 1.45 1.39 1.61 1.95 2.08 2.15 2.18 2.05 1.85 1.65 1.44 1.33
0.97 0.91 0.68 0.64 0.66 0.80 0.82 0.75 0.74 0.74 0.78 0.88 0.91 0.84 0.79 0.79 0.84 0.94 1.08 1.16 1.24 1.22 1.10 1.09 1.10 1.13 1.37 1.53 1.58 1.52 1.49 1.55 1.33 1.44 1.79 1.99 1.87 1.95 2.19 2.11 1.90 1.62 1.39
1.01 1.04 0.87 0.85 0.82 0.85 0.90 0.89 0.93 0.87 0.91 1.00 0.99 1.03 0.94 0.91 1.03 1.13 1.15 1.20 1.22 1.23 1.14 1.10 1.16 1.08 1.19 1.42 1.49 1.49 1.47 1.56 1.45 1.50 1.64 2.11 1.92 2.09 2.32 2.13 1.94 1.75 1.51
1.71 1.72 1.45 1.32 1.20 1.04 1.01 0.95 0.94 0.94 1.04 1.18 1.13 1.12 1.13 1.13 1.16 1.28 1.23 1.23 1.18 1.12 1.11 1.09 1.19 1.21 1.13 1.13 1.15 1.23 1.29 1.26 1.20 1.39 1.78 1.97 2.04 2.48 2.61 2.31 2.09 1.93 1.75
2.46 2.51 2.09 1.65 1.45 1.44 1.32 1.10 1.12 1.07 1.10 1.19 1.22 1.21 1.29 1.54 1.71 1.73 1.49 1.56 1.43 1.29 1.24 1.24 1.22 1.17 1.10 1.07 1.12 1.24 1.21 0.94 1.10 1.42 1.69 1.96 2.16 2.56 2.76 2.48 2.24 2.11 1.94
2.75 2.75 2.43 1.90 1.98 2.14 1.76 1.60 1.51 1.35 1.31 1.28 1.43 1.49 1.62 2.08 2.21 1.91 1.95 1.90 1.83 1.69 1.55 1.52 1.48 1.35 1.21 1.14 1.26 1.30 1.03 0.92 1.22 1.46 1.70 2.13 2.44 2.69 2.68 2.45 2.34 2.31 2.19
2.85 2.56 2.21 2.12 2.15 2.34 2.25 2.07 1.97 1.92 1.97 1.97 2.04 2.10 2.29 2.36 2.22 2.08 2.35 2.21 2.15 2.03 1.95 2.00 1.83 1.56 1.48 1.49 1.48 1.37 1.18 1.21 1.40 1.49 1.75 2.17 2.45 2.75 2.86 2.59 2.39 2.44 2.41
2.73 2.58 2.53 2.55 2.40 2.55 2.85 2.74 2.57 2.53 2.45 2.32 2.35 2.29 2.64 2.79 2.68 2.67 2.76 2.69 2.78 2.75 2.72 2.43 2.20 1.94 1.81 1.63 1.48 1.44 1.45 1.48 1.61 1.80 2.12 2.25 2.33 2.53 2.72 2.73 2.66 2.65 2.56
2.94 2.79 2.76 2.86 2.81 2.89 3.26 3.35 3.07 2.99 2.79 2.59 2.57 2.64 2.81 2.88 2.90 3.03 3.00 3.15 3.08 2.98 2.83 2.61 2.28 2.23 2.05 1.86 1.69 1.58 1.67 1.79 1.87 2.12 2.21 2.30 2.24 2.31 2.61 2.87 2.94 3.00 2.86
3.20 2.97 2.88 2.98 2.92 2.93 3.11 3.27 3.26 3.18 3.26 3.14 2.94 2.89 2.93 3.02 3.13 3.15 3.19 3.16 2.99 2.82 2.84 2.78 2.59 2.53 2.36 2.19 1.95 1.93 1.95 1.94 2.05 2.13 2.24 2.46 2.21 2.10 2.42 2.80 3.02 3.14 3.23
3.43 3.38 3.27 3.30 3.40 3.27 3.23 3.29 3.21 3.25 3.52 3.50 3.46 3.38 3.17 3.08 3.15 3.20 3.28 3.22 3.07 2.98 2.97 2.90 2.84 2.76 2.60 2.45 2.31 2.27 2.25 2.16 2.11 2.15 2.34 2.53 2.49 2.39 2.45 2.58 2.77 3.00 3.23
3.95 3.86 3.48 3.20 3.45 3.50 3.52 3.53 3.57 3.57 3.74 3.69 3.52 3.59 3.39 3.38 3.30 3.28 3.16 3.01 2.97 2.95 3.09 3.15 3.05 3.07 2.91 2.78 2.71 2.45 2.39 2.40 2.25 2.28 2.35 2.38 2.64 2.70 2.69 2.57 2.58 2.78 3.02
4.54 4.29 3.70 3.38 3.48 3.65 3.63 3.76 3.98 4.11 4.06 3.89 3.73 3.79 3.64 3.68 3.59 3.48 3.52 3.44 3.30 3.33 3.31 3.07 3.16 3.25 3.26 3.18 2.82 2.63 2.49 2.48 2.41 2.28 2.31 2.28 2.47 2.67 2.67 2.64 2.63 2.64 2.87
4.65 4.53 4.05 3.77 3.97 3.97 3.85 3.94 4.08 4.18 4.18 4.25 4.27 4.22 4.06 3.98 4.05 4.16 4.16 4.05 3.83 3.70 3.62 3.67 3.66 3.40 3.23 3.21 2.87 2.77 2.64 2.43 2.38 2.31 2.22 2.22 2.30 2.22 2.30 2.35 2.51 2.48 2.60
3.87 3.95 4.10 4.09 4.15 4.17 4.13 4.15 4.34 4.49 4.50 4.48 4.62 4.63 4.47 4.40 4.54 4.85 4.88 4.72 4.41 4.09 3.86 3.80 3.78 3.58 3.30 3.16 3.16 2.98 2.66 2.38 2.33 2.25 2.23 2.22 2.07 2.04 2.17 2.32 2.29 2.17 2.22
3.62 3.81 4.01 4.02 4.21 4.47 4.84 5.34 5.62 5.72 5.59 5.39 5.27 5.20 5.07 4.97 5.05 5.17 5.23 4.87 4.51 4.31 4.03 3.76 3.68 3.52 3.26 3.22 3.21 3.24 2.89 2.66 2.28 1.98 2.06 2.08 2.02 2.05 2.03 1.99 2.05 2.04 2.00
3.22 3.56 3.83 4.15 4.57 5.08 5.72 6.50 6.81 6.55 6.13 5.91 5.55 5.46 5.25 5.04 5.01 5.10 4.83 4.58 4.37 4.17 3.95 3.73 3.67 3.61 3.32 3.19 3.27 3.45 3.15 2.82 2.49 2.21 1.98 1.92 2.00 2.05 2.00 1.98 1.94 1.98 1.98
2.86 3.33 3.79 4.35 4.97 5.61 6.21 6.66 6.84 6.72 6.44 6.14 5.69 5.27 4.88 4.57 4.38 4.27 4.16 3.93 3.83 3.69 3.52 3.35 3.35 3.37 3.25 3.01 2.96 2.84 2.78 2.62 2.59 2.37 2.12 1.94 1.93 1.99 1.97 1.91 1.89 1.93 1.99
2.78 3.27 3.76 4.27 4.98 5.47 6.01 6.41 6.61 6.61 6.50 6.09 5.41 4.74 4.32 4.00 3.74 3.46 3.26 3.16 3.15 3.09 2.88 2.70 2.67 2.71 2.69 2.63 2.59 2.45 2.42 2.40 2.36 2.27 2.17 2.08 2.02 1.90 1.82 1.82 1.82 1.82 1.89
2.71 3.23 3.61 3.95 4.66 5.35 5.83 6.18 6.44 6.40 6.17 5.55 4.84 4.28 3.92 3.61 3.35 3.10 2.92 2.75 2.67 2.58 2.41 2.26 2.21 2.23 2.27 2.29 2.34 2.34 2.23 2.18 2.13 2.16 2.04 1.96 1.94 1.84 1.77 1.72 1.68 1.71 1.81